Location: Chevoux
(46.3801°N, 4.9476°E)
Time: 21:37:36
(UTC+00:00)

Cosmos 372 Rocket - Pass Details

Date: 28 January 2021
Orbit: 738 x 768 km, 74.1° (Epoch: 03 March)

Event Time Altitude Azimuth Distance (km) Brightness Sun altitude
Rises 18:27:54 0° 202° (SSW) 3,199 7.6 -18.8°
Reaches altitude 10° 18:30:15 10° 203° (SSW) 2,283 6.8 -19.2°
Maximum altitude 18:35:27 83° 291° (WNW) 775 4.0 -20.1°
Enters shadow 18:39:58 14° 20° (NNE) 2,025 5.9 -20.9°
